692  
NZUS99 KTBW 130018  
RWRTPA  
FLORIDA REGIONAL WEATHER ROUNDUP  
NATIONAL WEATHER SERVICE TAMPA BAY RUSKIN FL  
800 PM EDT WED AUG 12 2020  
 
NOTE: "FAIR" INDICATES FEW OR NO CLOUDS BELOW 12,000 FEET WITH NO  
SIGNIFICANT WEATHER AND/OR S TO VISIBILITY
.  
 
 
STATION/POSITION
 
 
 
FLZ042-048>051-055-056-060-061-130100-  
EXTRA STATIONS  
 
CITY SKY/WX TMP DP RH WIND PRES REMARKS
 
EVERGLADES CTY NOT AVBL  
CRYSTAL RIVER FAIR 84 73 70 CALM 30.01R HX 91  
SEBRING FAIR 79 76 90 NE5 30.01R  
EGLIN AFB CLEAR 84 72 65 S8 29.98R  
CANAVERAL PTCLDY 83 76 79 CALM 29.99R HX 91  
 

 
FLZ001>010-012>015-130100-  
PANHANDLE FLORIDA  
 
CITY SKY/WX TMP DP RH WIND PRES REMARKS
 
PENSACOLA N/A N/A N/A N/A MISG N/A  
PENSACOLA NAS CLOUDY 84 75 74 SW6 29.98R HX 92  
MILTON NAS MOCLDY 83 75 77 SW7 29.98R HX 90  
CRESTVIEW PTCLDY 86 76 71 SW7 29.99R HX 96  
VALPARAISO MOCLDY 84 75 73 SW7 29.98R HX 92  
MARY ESTHER PTCLDY 85 75 72 W7 29.97R HX 92  
PANAMA CITY FAIR 84 78 82 S8 29.97R HX 95  
TYNDALL AFB MOCLDY 83 75 74 SW8 29.98R HX 91  
APALACHICOLA MOCLDY 84 76 76 W5 29.97F HX 93  
 
STATION/POSITION
 
 
29.2N 88.2W  
28.8N 86.0W  
28.5N 84.5W  
 

 
FLZ011-016>039-130100-  
NORTH FLORIDA  
 
CITY SKY/WX TMP DP RH WIND PRES REMARKS
 
MARIANNA PTCLDY 87 74 64 SW9 29.95S HX 95  
TALLAHASSEE PTCLDY 83 76 79 SW7 29.98R HX 91  
CROSS CITY PTCLDY 83 73 69 SW5 30.00S  
GAINESVILLE CLOUDY 84 73 69 W5 30.02R HX 90  
MAYPORT NAS MOCLDY 81 70 69 SW9 29.99R  
JACKSONVILLE MOCLDY 80 75 84 S8 29.98R  
JAX NAS CLOUDY 78 74 87 SW9 30.00R  
JAX CRAIG MOCLDY 78 73 84 S6 30.00R  
ST AUGUSTINE PTCLDY 78 72 81 W5 30.00S  
 
STATION/POSITION
 
 
KEATON BEACH  
31.4N 80.9W  
ST AUGUSTINE  
 

 
FLZ040-043>046-052-053-057-058-063-130100-  
CENTRAL FLORIDA  
 
CITY SKY/WX TMP DP RH WIND PRES REMARKS
 
OCALA MOCLDY 87 73 62 S6 30.01R HX 94  
LEESBURG CLOUDY 81 74 79 S3 30.02R  
SANFORD CLOUDY 80 72 76 CALM 30.01R  
ORLANDO EXEC CLOUDY 83 73 72 S5 30.01R  
ORLANDO INTL MOCLDY 81 75 82 S3 30.02R  
KISSIMMEE MOCLDY 81 76 84 SW7 30.03R  
WINTER HAVEN LGT RAIN 77 74 90 NW7 30.04R  
LAKELAND LGT RAIN 73 72 94 NE6 30.03R  
BARTOW RAIN 75 73 94 CALM 30.02S  
 

 
FLZ041-047-054-059-064-130100-  
EAST CENTRAL FLORIDA  
 
CITY SKY/WX TMP DP RH WIND PRES REMARKS
 
DAYTONA BEACH MOCLDY 76 75 97 S8 30.01R  
JFK SPACE CTR PTCLDY 80 77 91 CALM 29.99  
TITUSVILLE PTCLDY 82 75 78 CALM 30.01R  
PATRICK AFB CLEAR 84 75 74 SE3 30.00R HX 92  
MELBOURNE PTCLDY 81 78 91 S3 30.00R  
VERO BEACH PTCLDY 85 74 69 SE7 30.00R HX 92  
FT PIERCE PTCLDY 83 75 77 SE5 30.00R HX 90  
STUART PTCLDY 84 75 74 SE9 30.00R HX 92  
 
STATION/POSITION
 
 
28.9N 78.5W  
 

 
FLZ042-048>051-055-056-060-061-130100-  
WEST CENTRAL FLORIDA  
 
CITY SKY/WX TMP DP RH WIND PRES REMARKS
 
BROOKSVILLE CLOUDY 85 73 67 E6 30.02R HX 91  
TAMPA CLOUDY 82 68 62 SE8 30.02R  
MACDILL AFB CLOUDY 80 71 72 E12 30.01R  
ST PETERSBURG CLOUDY 87 73 62 N5 30.01R HX 94  
ST PET-WHITTED LGT RAIN 81 73 76 E17 30.01R  
SARASOTA CLOUDY 83 71 67 E14 30.00R  
 
STATION/POSITION
 
 
CEDAR KEY  
28.5N 84.5W  
VENICE  
 

 
FLZ062-065-066-069-070-075>078-130100-  
SOUTHWEST FLORIDA AND KEYS  
 
CITY SKY/WX TMP DP RH WIND PRES REMARKS
 
PUNTA GORDA CLOUDY 78 78 100 NE13 30.02R  
FT MYERS CLOUDY 85 75 72 CALM 29.99R HX 93  
SOUTHWEST INTL CLOUDY 83 77 82 NW3 29.99R HX 92  
NAPLES PTCLDY 85 78 80 N3 29.98R HX 96  
MARATHON CLEAR 85 76 74 E8 29.96R HX 94  
KEY WEST NAS MOCLDY 88 77 69 E12 29.96R HX 100  
KEY WEST INTL PTCLDY 87 76 69 E10 29.96R HX 97  
 
STATION/POSITION
 
 
VENICE  
26.0N 85.6W  
SAND KEY  
SOMBRERO KEY  
LONG KEY  
 

 
FLZ067-068-071>074-130100-  
SOUTHEAST FLORIDA  
 
CITY SKY/WX TMP DP RH WIND PRES REMARKS
 
W PALM BEACH PTCLDY 85 76 74 SE10 30.00R HX 94  
POMPANO BEACH PTCLDY N/A N/A N/A E8 29.98R  
FT LAUDER-EXEC PTCLDY 85 77 77 SE8 29.98R HX 95  
FT LAUDERDALE PTCLDY 86 77 74 SE9 29.97R HX 97  
PEMBROKE PINES CLEAR 86 77 74 E10 29.99R HX 97  
OPA LOCKA CLEAR 84 75 74 E12 29.98R HX 92  
MIAMI PTCLDY 86 76 71 E12 29.98R HX 96  
WEST KENDALL CLEAR 86 76 71 SE9 29.98R HX 96  
HOMESTEAD PTCLDY 85 76 74 E3 29.97R HX 95  
 
STATION/POSITION
 
 
LAKE WORTH  
FOWEY ROCKS  
SETTLEMENT POINT  
 

 
 
 
CLICK HERE TO GO TO PREVIOUS BULLETINS.

The Nexlab FL Page Main Text Page